Regional Weather Roundup
Issued by NWS Cleveland, OH

Home | Current Version | Previous Version | Text Only | Print | Product List | Glossary On
Versions: 1 2 3 4 5 6 7 8 9 10 11 12 13 14 15 16 17 18 19 20 21 22 23 24 25 26 27 28 29 30 31 32 33 34 35 36 37 38 39 40 41 42 43 44 45 46 47 48 49 50
000
ASUS41 KCLE 281610
RWRCLE
OHIO REGIONAL WEATHER ROUNDUP
NATIONAL WEATHER SERVICE WILMINGTON, OH
1200 PM EDT MON JUL 28 2014

NOTE: "FAIR" INDICATES FEW OR NO CLOUDS BELOW 12,000 FEET WITH NO
SIGNIFICANT WEATHER AND/OR OBSTRUCTIONS TO VISIBILITY.

OHZ001>008-015>018-024>027-034-035-043-044-281700-
   NORTHWEST OHIO

CITY           SKY/WX    TMP DP  RH WIND       PRES   REMARKS
DEFIANCE       MOSUNNY   71  54  54 N14G21    29.94R
FINDLAY        PTSUNNY   71  56  58 NW15      29.91R
TOLEDO EXPRESS PTSUNNY   69  54  58 N14G20    29.91R
TOLEDO METCALF PTSUNNY   69  54  58 NW10      29.91S
LIMA           PTSUNNY   69  58  67 NW12      29.93R
$$

OHZ009>014-019>023-028>033-038-089-281700-
   NORTHEAST OHIO

CITY           SKY/WX    TMP DP  RH WIND       PRES   REMARKS
CLE-HOPKINS    CLOUDY    65  57  75 NW22G33   29.85R
CLE-LAKEFRONT  CLOUDY    66  59  78 NW21G30   29.81R
CUY CO. ARPT   CLOUDY    63  61  94 N12G23    29.82R
LORAIN-ELYRIA  PTSUNNY   69  57  65 N17G26    29.86R
ASHTABULA      LGT RAIN  63  60  90 N10G24    29.77R
AKRON-CANTON   CLOUDY    66  58  75 NW21G28   29.80R
WOOSTER        CLOUDY    66  58  75 N18G26    29.84R
MANSFIELD      PTSUNNY   68  57  68 NW21G29   29.87R
YOUNGSTOWN     CLOUDY    66  62  87 NW17G25   29.75R
$$

OHZ042-051>053-060>062-070>072-077>081-281700-
  SOUTHWEST OHIO

CITY           SKY/WX    TMP DP  RH WIND       PRES   REMARKS
CINC-COVINGTON CLOUDY    69  58  67 NW12      29.97R
CINC-LUNKEN    CLOUDY    69  58  67 NW13      29.96R
HAMILTON       CLOUDY    69  60  73 NW10      29.96R
DAYTON         PTSUNNY   72  59  63 NW15      29.94S
WRIGHT-PAT AFB PTSUNNY   69  61  76 NW10      29.93S
DAYTON GENERAL CLOUDY    68  59  73 N10       29.94R
WILMINGTON     CLOUDY    67  58  72 NW12      29.93R
$$

OHZ036-037-039>041-045>050-054>059-063>069-073>076-082>088-281700-
  CENTRAL AND SOUTHEAST OHIO

CITY           SKY/WX    TMP DP  RH WIND       PRES   REMARKS
COLUMBUS       CLOUDY    71  59  65 NW16      29.88R
OSU AIRPORT    CLOUDY    68  59  73 NW14G24   29.89R
BOLTON FIELD   CLOUDY    68  61  77 NW16G23   29.90R
RICKENBACK AFB CLOUDY    70  56  60 NW14G20   29.88R
NEWARK         CLOUDY    67  59  75 NW14G20   29.87R
MARION         CLOUDY    68  58  70 NW15G24   29.89R
LANCASTER      CLOUDY    70  59  68 NW15G21   29.89R
ZANESVILLE     LGT RAIN  67  59  75 NW13G21   29.85R
NEW PHILLY     CLOUDY    68  59  73 NW14G23   29.82R
$$



USA.gov is the U.S. government's official web portal to all federal, state and local government web resources and services.